sat.trackr.live / text

‹ back to catalog

STARLINK-31688

NORAD 59386 · 2024-062N

PAYLOAD ACTIVE UNKNOWN

§ Identity

Operator
Country
US
Launch date
2024-04-02
Launch site
AFWTR
Launch vehicle
Mass (kg)
RCS (m²)

Purposes: comms

External: N2YO · Heavens-Above · Gunter

§ Orbital elements

Epoch: 2026-09-20T17:43:53.445792Z

Period
93.85 min
Inclination
53.1585°
Eccentricity
0.0001381
Mean motion
15.34384585 rev/d
Perigee alt
461.8 km
Apogee alt
463.7 km
Semi-major
6,840.9 km
B*
-3.3147e-5
RAAN
68.3165°
Arg perigee
86.9045°
Mean anomaly
273.2115°
Rev number
13,951

§ Raw data

STARLINK-316881 59386U 24062N   26263.73881303 -.00001495  00000+0 -33147-4 0  99992 59386  53.1585  68.3165 0001381  86.9045 273.2115 15.34384585139510

JSON: /api/v1/satellites/59386 · /tle

For live sub-satellite position, see the globe view (requires WebGL).

§ Visibility from observer

Set your observer location to see the next 7 days of passes ≥ 10°. The values pass through the URL so the page stays shareable.

No JS? Fill the form by hand. The geolocation button needs JavaScript.